星链-4334 (STARLINK-4334 )

导读

STARLINK-4334是美国太空探索技术公司(SpaceX)星链(Starlink)互联网星座项目中的一颗卫星,于北京时间2022年8月31日8时发射入轨,属于星链卫星的第二代批次,承担近地轨道宽带互联网通信服务任务,助力全球范围内的高速网络覆盖。

基本信息
目录编号:
53665
目录名称:
STARLINK-4334
国际标识:
2022-105T
轨道中心:
EARTH
卫星名称:
星链-4334
卫星全名:
星链-4334 (STARLINK-4334 )
卫星状态:
在轨 (已飞行1465 天)
发射日期:
2022-08-31 UTC
国别 :
美国 (US)
星等 :
--
轨道信息
数据来源 国际轨道数据
星历时间: 2026-09-03T11:29:45+0800
1天前
查看轨道信息
半长轴: 6833.658km
偏心率: 0.0002854
轨道倾角: 97.540°
近地点辐角 81.230°
升交点赤经 134.253°
平近点角 278.927°
近地点: 453.57km
远地点: 457.472km
周期: 93.700分钟
每日圈数: 15.368197
详细信息
固有亮度:
5
最大亮度:
2.5
卫星平台:
Starlink v1.5
覆盖范围:
全球
运营商:
太空探索技术公司
运营商所在国:
美国
制造商(研发单位):
太空探索技术公司
制造商所在国:
美国
使用方式:
暂无
卫星简介
星链(Starlink)计划是由太空探索技术公司(SpaceX)提出的一个巨型低轨卫星互联网星座项目,计划在2019年至2024年间在太空搭建由约1.2万颗卫星组成的“星链”网络,其中1584颗将部署在地球上空550千米处的近地轨道,并从2020年开始工作。该卫星仍在工作。
2D轨道图
3D轨道图
轨道高度分析图
轨道倾角分析图
轨道综合分析图
查看轨道综合分析图
交会数据列表
事件ID 空间交会对象 最接近时刻(TCA) 交会距离 交会风险概率(CRP) 交会风险指数(CRI) 操作
CDM_260905-104205-366506-393221
2026-09-05T
10:42:58+0000
0.618 km
远距离
7.248817E-5 中风险 0.72
CDM_260828-184805-353505-366521
2026-08-28T
18:48:56+0000
2.191 km
极远距离
2.088265E-6 低风险 0.41
CDM_260904-231805-246405-366521
2026-09-04T
23:18:52+0000
2.801 km
极远距离
1.460307E-6 低风险 0.38